Hourly Data Report for May 27, 2018

TORONTO CITY
ONTARIO
Current Station Operator: ECCC - MSC

43°40'00.000" N
79°24'00.000" W
112.50 m
6158355
71508
XTO

Download Data

Hourly Data (May 2018)
Hourly Data Report for May 27, 2018
TIME
LST
Temp Definition
°C
Dew Point Definition
°C
Rel Hum Definition
%
Precip. Amount Definition
mm

Wind Dir Definition
10's deg

Wind Spd Definition
km/h
Visibility Definition
km
Stn Press Definition
kPa
Hmdx Definition


Wind Chill Definition


Weather Definition


00:00 18.4 13.0 71 0.0 LegendMM LegendMM   99.82     LegendNANA
01:00 18.8 13.1 69 0.0 LegendMM LegendMM   99.80     LegendNANA
02:00 18.3 13.0 71 0.0 LegendMM LegendMM   99.81     LegendNANA
03:00 18.8 13.8 72 0.0 LegendMM LegendMM   99.82     LegendNANA
04:00 18.3 14.0 76 0.0 LegendMM LegendMM   99.83     LegendNANA
05:00 17.5 14.3 82 0.0 LegendMM LegendMM   99.87     LegendNANA
06:00 16.5 14.2 86 0.0 LegendMM LegendMM   99.93     LegendNANA
07:00 17.0 14.2 84 0.0 LegendMM LegendMM   99.98     LegendNANA
08:00 18.8 14.0 74 0.0 LegendMM LegendMM   100.01     LegendNANA
09:00 21.6 14.3 63 0.0 LegendMM LegendMM   99.99 25   LegendNANA
10:00 22.2 14.2 61 0.0 LegendMM LegendMM   100.01 26   LegendNANA
11:00 22.1 14.3 61 0.0 LegendMM LegendMM   100.00 26   LegendNANA
12:00 23.8 15.0 58 0.0 LegendMM LegendMM   99.98 28   LegendNANA
13:00 24.2 15.6 59 0.0 LegendMM LegendMM   99.97 29   LegendNANA
14:00 26.2 16.9 56 0.0 LegendMM LegendMM   99.95 31   LegendNANA
15:00 25.6 15.9 55 0.0 LegendMM LegendMM   99.93 30   LegendNANA
16:00 22.8 16.3 67 0.0 LegendMM LegendMM   99.91 28   LegendNANA
17:00 21.7 15.6 68 0.0 LegendMM LegendMM   99.88 26   LegendNANA
18:00 22.3 15.3 65 0.0 LegendMM LegendMM   99.89 26   LegendNANA
19:00 22.0 15.6 67 0.0 LegendMM LegendMM   99.88 26   LegendNANA
20:00 20.3 15.6 74 0.0 LegendMM LegendMM   99.85 25   LegendNANA
21:00 19.5 15.1 76 0.0 LegendMM LegendMM   99.93     LegendNANA
22:00 19.7 15.5 77 0.0 LegendMM LegendMM   99.95     LegendNANA
23:00 19.7 15.4 76 0.0 LegendMM LegendMM   99.95     LegendNANA

Notes on Data Quality.

Legend

  • E = Estimated
  • M = Missing
  • NA = Not Available*
  • [empty] = Indicates an unobserved value
Date modified: